This is the latest recevied weather packets stored in our database for station/object AA1FF. If no packets are shown the sender has not sent any weather packets the latest 10 day(s).
| Time | Temp. | Humidity | Pressure | Rain* | Wind** | Luminosity | Snow |
|---|---|---|---|---|---|---|---|
| 1777637623 | 8.89° C | 75% | 1011 hPa | 0 mm | - | 381 W/m² | - |
| 1777637324 | 8.33° C | 77% | 1011 hPa | 0 mm | - | 221 W/m² | - |
| 1777637024 | 8.33° C | 78% | 1011 hPa | 0 mm | - | 88 W/m² | - |
| 1777636723 | 7.78° C | 78% | 1011 hPa | 0 mm | - | 106 W/m² | - |
| 1777636424 | 7.78° C | 79% | 1011 hPa | 0 mm | - | 112 W/m² | - |
| 1777636123 | 7.78° C | 78% | 1011 hPa | 0 mm | - | 112 W/m² | - |
| 1777635824 | 7.78° C | 80% | 1011 hPa | 0 mm | - | 109 W/m² | - |
| 1777635524 | 7.22° C | 83% | 1011 hPa | 0 mm | - | 60 W/m² | - |
| 1777635223 | 6.67° C | 84% | 1011 hPa | 0 mm | - | 57 W/m² | - |
| 1777634924 | 6.67° C | 86% | 1011 hPa | 0 mm | - | 49 W/m² | - |
| 1777634623 | 6.11° C | 86% | 1011 hPa | 0 mm | - | 48 W/m² | - |
| 1777634324 | 5.56° C | 92% | 1011 hPa | 0 mm | - | 53 W/m² | - |
| 1777634023 | 5° C | 98% | 1011 hPa | 0 mm | - | 48 W/m² | - |
| 1777633724 | 4.44° C | 98% | 1010 hPa | 0 mm | - | 44 W/m² | - |
| 1777633424 | 3.89° C | 99% | 1010 hPa | 0 mm | - | 43 W/m² | - |
| 1777633123 | 3.89° C | 98% | 1010 hPa | 0 mm | - | 40 W/m² | - |
| 1777632823 | 3.33° C | 98% | 1010 hPa | 0 mm | - | 40 W/m² | - |
| 1777632523 | 3.33° C | 98% | 1010 hPa | 0 mm | - | 38 W/m² | - |
| 1777632224 | 3.33° C | 98% | 1010 hPa | 0 mm | - | 37 W/m² | - |
| 1777631924 | 3.33° C | 98% | 1010 hPa | 0 mm | - | 33 W/m² | - |
| 1777631623 | 2.78° C | 98% | 1010 hPa | 0 mm | - | 30 W/m² | - |
| 1777631323 | 2.78° C | 97% | 1010 hPa | 0 mm | - | 28 W/m² | - |
| 1777631024 | 2.78° C | 97% | 1010 hPa | 0 mm | - | 26 W/m² | - |
| 1777630724 | 2.78° C | 97% | 1010 hPa | 0 mm | - | 23 W/m² | - |
| 1777630423 | 3.33° C | 97% | 1010 hPa | 0 mm | - | 19 W/m² | - |
* Rain latest hour (hover to see other rain measurements)
** Current wind speed in m/s (hover to see current wind gust speed)